UAE8XK OMDB-OEJN

Flight info

Callsign UAE8XK
Flight time N/A
Altitude 34000
Route MIROT Q576 RORON M430 DOH SALWA V975 KIA M309 VEMEM G782 KAPAV IMDAP
Aircraft B77W/H-VGDW/C

Departure

Time N/A
Airport Dubai International Airport (OMDB)

Arrival

Time 2025-10-27 07:22
Airport King Abdulaziz International Airport (OEJN)
Time Latitude Longitude Altitude Speed Heading
2025-10-27 05:23 25.26561 52.41278 33993 ft 431 kts 267°
2025-10-27 05:25 25.26274 52.24868 33976 ft 446 kts 267°
2025-10-27 05:27 25.25673 51.93253 33961 ft 465 kts 267°
2025-10-27 05:29 25.25125 51.67044 33958 ft 465 kts 267°
2025-10-27 05:31 25.25269 51.38926 35435 ft 462 kts 269°
2025-10-27 05:33 25.25576 51.11017 37189 ft 462 kts 268°
2025-10-27 05:35 25.25814 50.85265 37960 ft 460 kts 268°
2025-10-27 05:37 25.26018 50.57236 37971 ft 459 kts 268°
2025-10-27 05:39 25.26517 50.29071 38043 ft 460 kts 268°
2025-10-27 05:41 25.27055 50.00883 38046 ft 460 kts 268°
2025-10-27 05:43 25.27539 49.72718 38043 ft 460 kts 268°
2025-10-27 05:45 25.27530 49.44561 38045 ft 457 kts 262°
2025-10-27 05:47 25.25027 49.16666 38047 ft 457 kts 262°
2025-10-27 05:49 25.22456 48.88986 38044 ft 452 kts 261°
2025-10-27 05:51 25.19843 48.61438 38041 ft 452 kts 261°
2025-10-27 05:53 25.17180 48.33891 38065 ft 452 kts 261°
2025-10-27 05:55 25.14466 48.06398 38112 ft 451 kts 261°
2025-10-27 05:57 25.11945 47.82341 38111 ft 450 kts 256°
2025-10-27 05:59 25.05411 47.52036 38144 ft 457 kts 255°
2025-10-27 06:01 25.00195 47.28210 38155 ft 463 kts 255°
2025-10-27 06:03 24.93852 46.99489 38043 ft 467 kts 256°
2025-10-27 06:05 24.88449 46.75894 37162 ft 460 kts 249°
2025-10-27 06:07 24.76184 46.47337 36152 ft 461 kts 245°
2025-10-27 06:09 24.65159 46.22100 36158 ft 462 kts 245°
2025-10-27 06:11 24.54216 45.97192 36155 ft 462 kts 245°
2025-10-27 06:13 24.43023 45.71863 36179 ft 462 kts 245°
2025-10-27 06:15 24.31774 45.46589 36176 ft 462 kts 245°
2025-10-27 06:17 24.20711 45.21869 36183 ft 462 kts 244°
2025-10-27 06:19 24.09380 44.96709 36181 ft 461 kts 245°
2025-10-27 06:21 23.99467 44.74793 36179 ft 461 kts 246°
2025-10-27 06:23 23.87822 44.46077 36176 ft 460 kts 251°
2025-10-27 06:25 23.79815 44.23378 36185 ft 460 kts 251°
2025-10-27 06:27 23.69466 43.94215 36181 ft 460 kts 251°
2025-10-27 06:29 23.61361 43.71513 36179 ft 460 kts 251°
2025-10-27 06:31 23.50870 43.42305 36175 ft 460 kts 251°
2025-10-27 06:35 23.32165 42.91997 36182 ft 466 kts 251°
2025-10-27 06:36 23.23326 42.69266 36180 ft 466 kts 251°
2025-10-27 06:38 23.13199 42.43372 36179 ft 466 kts 251°
2025-10-27 06:40 23.03056 42.17582 36239 ft 467 kts 250°
2025-10-27 06:42 22.92736 41.91480 36236 ft 478 kts 249°
2025-10-27 06:44 22.82146 41.64869 36234 ft 483 kts 248°
2025-10-27 06:47 22.70116 41.34813 36232 ft 483 kts 248°
2025-10-27 06:49 22.59380 41.08150 36236 ft 483 kts 248°
2025-10-27 06:51 22.49771 40.84414 36235 ft 489 kts 248°
2025-10-27 06:53 22.37728 40.54829 36234 ft 490 kts 248°
2025-10-27 06:55 22.26907 40.28405 36238 ft 490 kts 248°
2025-10-27 06:57 22.15232 40.02584 34027 ft 442 kts 245°
2025-10-27 06:59 22.04432 39.79041 29185 ft 443 kts 246°
2025-10-27 07:00 21.96577 39.61995 24891 ft 399 kts 246°
2025-10-27 07:01 21.94102 39.56623 23563 ft 404 kts 245°
2025-10-27 07:01 21.91708 39.51450 22140 ft 380 kts 245°
2025-10-27 07:02 21.90545 39.48932 21495 ft 384 kts 245°
2025-10-27 07:02 21.87015 39.41305 19491 ft 398 kts 244°
2025-10-27 07:03 21.85049 39.37069 18232 ft 362 kts 244°
2025-10-27 07:03 21.82513 39.31600 16616 ft 350 kts 243°
2025-10-27 07:04 21.80777 39.27861 15439 ft 333 kts 243°
2025-10-27 07:04 21.78564 39.23048 13925 ft 326 kts 246°
2025-10-27 07:05 21.77842 39.21003 13281 ft 320 kts 250°
2025-10-27 07:05 21.76327 39.16596 11888 ft 314 kts 249°
2025-10-27 07:06 21.74842 39.12280 10501 ft 308 kts 249°
2025-10-27 07:06 21.72676 39.05956 8530 ft 296 kts 252°
2025-10-27 07:07 21.72993 39.01808 8036 ft 293 kts 302°
2025-10-27 07:07 21.76152 38.99182 7882 ft 294 kts 336°
2025-10-27 07:08 21.79815 38.97504 7563 ft 281 kts 340°
2025-10-27 07:08 21.81616 38.96759 7388 ft 283 kts 340°
2025-10-27 07:08 21.84648 38.95538 7053 ft 275 kts 341°
2025-10-27 07:09 21.90317 38.93287 6349 ft 259 kts 341°
2025-10-27 07:10 21.92980 38.92231 5944 ft 255 kts 341°
2025-10-27 07:10 21.96812 38.90711 5268 ft 253 kts 341°
2025-10-27 07:11 22.00184 38.89680 4491 ft 256 kts
2025-10-27 07:11 22.02986 38.91434 3953 ft 219 kts 67°
2025-10-27 07:12 22.03213 38.93032 4059 ft 219 kts 99°
2025-10-27 07:12 22.02510 38.96147 3919 ft 214 kts 103°
2025-10-27 07:13 22.01784 38.99242 3770 ft 214 kts 106°
2025-10-27 07:13 22.00120 39.01667 3634 ft 210 kts 160°
2025-10-27 07:14 21.97418 39.02352 3519 ft 191 kts 162°
2025-10-27 07:14 21.93671 39.03590 3532 ft 193 kts 159°
2025-10-27 07:15 21.91389 39.05015 3531 ft 192 kts 137°
2025-10-27 07:15 21.89525 39.06939 3530 ft 192 kts 135°
2025-10-27 07:16 21.88561 39.07931 3530 ft 192 kts 135°
2025-10-27 07:16 21.86962 39.09575 3530 ft 192 kts 135°
2025-10-27 07:16 21.84703 39.10908 3159 ft 183 kts 161°
2025-10-27 07:17 21.82121 39.11951 2554 ft 164 kts 159°
2025-10-27 07:18 21.78939 39.13202 1921 ft 165 kts 159°
2025-10-27 07:18 21.76876 39.14016 1476 ft 150 kts 158°
2025-10-27 07:19 21.75209 39.14675 1137 ft 149 kts 159°
2025-10-27 07:19 21.73264 39.15443 742 ft 149 kts 159°
2025-10-27 07:20 21.72300 39.15824 543 ft 149 kts 159°
2025-10-27 07:20 21.70407 39.16570 154 ft 142 kts 159°
2025-10-27 07:21 21.68691 39.17254 50 ft 90 kts 161°
2025-10-27 07:21 21.67995 39.17522 50 ft 57 kts 160°
2025-10-27 07:22 21.67536 39.17630 53 ft 17 kts 188°
2025-10-27 07:22 21.67275 39.17582 58 ft 11 kts 204°
2025-10-27 07:23 21.67195 39.17437 58 ft 13 kts 249°
2025-10-27 07:23 21.67151 39.17348 57 ft 14 kts 229°
2025-10-27 07:24 21.66981 39.17242 55 ft 11 kts 191°
2025-10-27 07:24 21.66862 39.17251 58 ft 8 kts 160°
2025-10-27 07:25 21.66785 39.17235 58 ft 4 kts 251°
2025-10-27 07:25 21.66779 39.17216 58 ft 0 kts 249°